Location: ?????
(55.8833°N, 37.6500°E)
Time: 20:03:20
(UTC+00:00)

STARLINK-1027 - Pass Details

Date: 27 February 2020
Orbit: 569 x 571 km, 53.0° (Epoch: 30 March)

Event Time Altitude Azimuth Distance (km) Brightness Sun altitude
Rises 17:16:53 0° 259° (W) 2,769 8.3 -20.1°
Reaches altitude 10° 17:19:09 10° 256° (WSW) 1,872 7.2 -20.4°
Maximum altitude 17:23:21 59° 177° (S) 661 3.8 -20.9°
Enters shadow 17:23:43 56° 151° (SSE) 679 3.7 -21.0°
